Location: Casco Millpond
(44.5581°N, 87.6111°W)
Time: 22:00:39
(UTC+00:00)

Cosmos 2341 Rocket - Pass Details

Date: 16 January 2026
Orbit: 967 x 1004 km, 82.9° (Epoch: 10 February)

Event Time Altitude Azimuth Distance (km) Brightness Sun altitude
Rises 12:21:54 0° 186° (S) 3,712 7.2 -10.8°
Reaches altitude 10° 12:24:25 10° 186° (S) 2,768 6.6 -10.4°
Maximum altitude 12:30:48 90° 113° (ESE) 1,010 4.1 -9.3°
Drops below altitude 10° 12:37:13 10° 8° (N) 2,784 6.3 -8.2°
Sets 12:39:45 0° 9° (N) 3,734 6.9 -7.8°
